Weather History for Long Beach, CA

Change the Weather History Date:

Wednesday, November 21, 2012

  Actual Average Record
Temperature  
Mean Temperature 61 °F 60 °F  
Max Temperature 67 °F 71 °F 86 °F (2002)
Min Temperature 54 °F 49 °F 37 °F (1979)
Degree Days  
Heating Degree Days 4 5  
Month to date heating degree days 50 70  
Since 1 July heating degree days 51 91  
Cooling Degree Days 0 0  
Month to date cooling degree days 27 19  
Year to date cooling degree days 1380 1123  
Growing Degree Days 10 (Base 50)    
Moisture  
Dew Point 54 °F    
Average Humidity 78    
Maximum Humidity 93    
Minimum Humidity 63    
Precipitation  
Precipitation 0.00 in 0.04 in 1.83 in (1967)
Month to date precipitation 0.29 0.61  
Year to date precipitation 5.06 9.92  
Since 1 July precipitation 0.65 1.48  
Sea Level Pressure  
Sea Level Pressure 30.06 in    
Wind  
Wind Speed 3 mph (ESE)    
Max Wind Speed 8 mph    
Max Gust Speed 10 mph    
Visibility 5 miles    
Events Fog    
T = Trace of Precipitation, MM = Missing Value Source: NWS Daily Summary

Daily Weather History Graph

Daily Weather History Graph

Search for Another Location

Airport:

Trip Planner

Search our weather history database for the weather conditions in past years. The results will help you decide how hot, cold, wet, or windy it might be!

Date:

Astronomy

Nov. 21, 2012 Rise Set
Actual Time 6:30 AM PST 4:46 PM PST
Civil Twilight 6:04 AM PST 5:12 PM PST
Nautical Twilight 5:33 AM PST 5:43 PM PST
Astronomical Twilight 5:03 AM PST 6:13 PM PST
Moon 12:49 PM PST (11/21) 12:11 AM PST (11/21)
Length of Visible Light 11h 08m
Length of Day
10h 15m
Waxing Gibbous, 63% of the Moon is Illuminated
Nov 21
Waxing Gibbous
Nov 28
Full
Dec 6
Last Quarter
Dec 13
New
Dec 19
First Quarter

Hourly Weather History & Observations

Time (PST) Temp. Dew Point Humidity Pressure Visibility Wind Dir Wind Speed Gust Speed Precip Events Conditions
12:53 AM 55.0 °F 51.1 °F 86% 30.06 in 10.0 mi Calm Calm - N/A   Clear
1:15 AM 55.4 °F 50.0 °F 82% 30.06 in 10.0 mi Calm Calm - N/A   Scattered Clouds
1:30 AM 55.4 °F 50.0 °F 82% 30.06 in 10.0 mi Calm Calm - N/A   Mostly Cloudy
1:37 AM 55.4 °F 50.0 °F 82% 30.06 in 10.0 mi Calm Calm - N/A   Scattered Clouds
1:53 AM 55.0 °F 50.0 °F 83% 30.06 in 10.0 mi Calm Calm - N/A   Partly Cloudy
2:15 AM 53.6 °F 50.0 °F 88% 30.06 in 10.0 mi ENE 3.5 mph - N/A   Mostly Cloudy
2:27 AM 53.6 °F 51.8 °F 94% 30.06 in 1.8 mi NNE 3.5 mph - N/A   Overcast
2:37 AM 53.6 °F 51.8 °F 94% 30.06 in 1.0 mi North 3.5 mph - N/A   Overcast
2:46 AM 53.6 °F 51.8 °F 94% 30.06 in 0.5 mi NNW 4.6 mph - N/A Fog Fog
2:50 AM 53.6 °F 51.8 °F 94% 30.06 in 0.2 mi Calm Calm - N/A Fog Fog
2:53 AM 54.0 °F 52.0 °F 93% 30.06 in 0.2 mi Calm Calm - N/A Fog Fog
3:39 AM 55.4 °F 53.6 °F 94% 30.06 in 0.2 mi Calm Calm - N/A Fog Fog
3:53 AM 55.0 °F 54.0 °F 96% 30.06 in 0.5 mi Calm Calm - N/A Fog Fog
4:05 AM 55.4 °F 53.6 °F 94% 30.06 in 0.2 mi Calm Calm - N/A Fog Fog
4:24 AM 55.4 °F 53.6 °F 94% 30.06 in 0.5 mi Calm Calm - N/A Fog Fog
4:46 AM 55.4 °F 55.4 °F 100% 30.06 in 1.5 mi Calm Calm - N/A   Overcast
4:50 AM 55.4 °F 55.4 °F 100% 30.06 in 3.0 mi East 3.5 mph - N/A   Overcast
4:53 AM 55.9 °F 54.0 °F 93% 30.06 in 4.0 mi ENE 4.6 mph - N/A   Overcast
5:06 AM 55.4 °F 53.6 °F 94% 30.06 in 1.8 mi ESE 5.8 mph - N/A   Overcast
5:09 AM 55.4 °F 53.6 °F 94% 30.06 in 0.8 mi East 5.8 mph - N/A   Overcast
5:29 AM 55.4 °F 55.4 °F 100% 30.07 in 1.5 mi ESE 3.5 mph - N/A   Overcast
5:33 AM 55.4 °F 55.4 °F 100% 30.07 in 3.0 mi SE 4.6 mph - N/A   Overcast
5:53 AM 55.9 °F 55.0 °F 97% 30.07 in 6.0 mi East 3.5 mph - N/A   Overcast
6:12 AM 55.4 °F 55.4 °F 100% 30.07 in 7.0 mi SE 3.5 mph - N/A   Overcast
6:53 AM 57.9 °F 55.0 °F 90% 30.09 in 7.0 mi Variable 3.5 mph - N/A   Overcast
7:53 AM 57.9 °F 54.0 °F 87% 30.11 in 6.0 mi Variable 3.5 mph - N/A   Overcast
8:53 AM 57.9 °F 53.1 °F 84% 30.12 in 5.0 mi East 4.6 mph - N/A   Haze
9:53 AM 59.0 °F 55.0 °F 87% 30.12 in 5.0 mi Calm Calm - N/A   Overcast
10:53 AM 63.0 °F 54.0 °F 72% 30.11 in 7.0 mi Calm Calm - N/A   Scattered Clouds
11:53 AM 64.9 °F 53.1 °F 65% 30.08 in 8.0 mi ESE 3.5 mph - N/A   Scattered Clouds
12:53 PM 66.0 °F 54.0 °F 65% 30.06 in 7.0 mi Variable 5.8 mph - N/A   Clear
1:53 PM 64.9 °F 54.0 °F 68% 30.04 in 6.0 mi SE 4.6 mph - N/A   Haze
2:53 PM 64.9 °F 54.0 °F 68% 30.03 in 5.0 mi SSW 5.8 mph - N/A   Haze
3:53 PM 64.0 °F 55.0 °F 73% 30.02 in 7.0 mi South 3.5 mph - N/A   Scattered Clouds
4:53 PM 63.0 °F 55.0 °F 75% 30.02 in 7.0 mi SSW 4.6 mph - N/A   Scattered Clouds
5:53 PM 62.1 °F 55.0 °F 78% 30.03 in 9.0 mi Calm Calm - N/A   Clear
6:53 PM 61.0 °F 55.0 °F 81% 30.04 in 9.0 mi SE 5.8 mph - N/A   Clear
7:53 PM 60.1 °F 55.9 °F 86% 30.05 in 6.0 mi ESE 6.9 mph - N/A   Clear
8:53 PM 59.0 °F 55.0 °F 87% 30.05 in 5.0 mi Calm Calm - N/A   Clear
9:53 PM 57.0 °F 54.0 °F 89% 30.05 in 4.0 mi Calm Calm - N/A   Clear
10:53 PM 57.0 °F 54.0 °F 89% 30.06 in 4.0 mi Calm Calm - N/A   Mostly Cloudy
11:53 PM 57.9 °F 55.0 °F 90% 30.05 in 5.0 mi Calm Calm - N/A   Overcast